Location: Mountain Grove
(34.0887°N, 86.6172°W)
Time: 00:43:23
(UTC+00:00)

Cosmos 1943 Rocket - Pass Details

Date: 14 July 2020
Orbit: 811 x 845 km, 71.0° (Epoch: 12 August)

Event Time Altitude Azimuth Distance (km) Brightness Sun altitude
Rises 04:53:22 0° 336° (NNW) 3,404 6.4 -32.6°
Reaches altitude 10° 04:55:50 10° 335° (NNW) 2,463 5.4 -32.7°
Enters shadow 04:59:55 48° 320° (NW) 1,083 2.9 -32.9°
